Overview Statistics Trail Chart Weather Telemetry Raw packets
 

This is the latest recevied weather packets stored in our database for station/object KB1WCR. If no packets are shown the sender has not sent any weather packets the latest 10 day(s).

<< 17 18 19 20 21 22 23 >>
Time Temp. Humidity Pressure Rain* Wind** Luminosity Snow
1788306248 17.78° C 99% 1019.3 hPa 0 mm - 0 W/m² -
1788305943 17.78° C 99% 1019.5 hPa 0 mm - 0 W/m² -
1788305638 17.78° C 99% 1019.4 hPa 0 mm - 0 W/m² -
1788305335 17.78° C 99% 1019.3 hPa 0 mm - 0 W/m² -
1788305029 17.78° C 99% 1019.5 hPa 0 mm - 1 W/m² -
1788304725 17.78° C 99% 1019.5 hPa 0 mm - 2 W/m² -
1788304421 17.78° C 99% 1019.3 hPa 0 mm - 3 W/m² -
1788304117 17.78° C 99% 1019.3 hPa 0 mm - 4 W/m² -
1788303816 17.78° C 99% 1019.2 hPa 0 mm - 7 W/m² -
1788303512 17.78° C 99% 1019.5 hPa 0 mm - 9 W/m² -
1788303211 17.78° C 99% 1019.1 hPa 0 mm - 10 W/m² -
1788302906 18.33° C 98% 1019 hPa 0 mm - 9 W/m² -
1788302603 18.33° C 98% 1019.1 hPa 0 mm - 13 W/m² -
1788302299 18.33° C 97% 1019.1 hPa 0 mm - 21 W/m² -
1788301994 18.89° C 97% 1019 hPa 0 mm - 31 W/m² -
1788301690 18.89° C 97% 1019 hPa 0 mm - 32 W/m² -
1788301386 18.89° C 97% 1018.8 hPa 0 mm - 46 W/m² -
1788301082 18.89° C 96% 1019 hPa 0 mm - 73 W/m² -
1788300776 18.89° C 95% 1019 hPa 0 mm - 76 W/m² -
1788300470 18.89° C 95% 1019 hPa 0 mm - 68 W/m² -
1788300164 18.89° C 94% 1019 hPa 0 mm - 55 W/m² -
1788299863 19.44° C 94% 1019 hPa 0 mm - 44 W/m² -
1788299557 19.44° C 93% 1019.2 hPa 0 mm - 72 W/m² -
1788299256 19.44° C 93% 1018.9 hPa 0 mm - 78 W/m² -
1788298949 19.44° C 92% 1019 hPa 0 mm - 80 W/m² -

* Rain latest hour (hover to see other rain measurements)
** Current wind speed in m/s (hover to see current wind gust speed)